OK1FRN-6 Weather Reports


time (UTC)temp
C
wind
direction
speed
KPH
gust
KPH
rain 1hr
cm
rain 24hr
cm
rain mn
cm
humidity
%
barometer
mb
20260506044557 10 45 0.0 0.0 0.00 0.00 0.00 85 1008.1
20260506043545 10 32 0.0 0.0 0.00 0.00 0.00 85 1007.9
20260506043040 10 0 0.0 0.0 0.00 0.00 0.00 85 1007.8
20260506042534 10 277 0.0 0.0 0.00 0.00 0.00 84 1007.7
20260506042028 10 328 0.0 0.0 0.00 0.00 0.00 84 1007.7
20260506041522 10 338 0.0 0.0 0.00 0.00 0.00 84 1007.5
20260506041016 10 0 0.0 0.0 0.00 0.00 0.00 84 1007.5
20260506040510 10 0 0.0 0.0 0.00 0.00 0.00 83 1007.6
20260506040005 10 59 0.0 0.0 0.00 0.00 0.00 83 1007.6
20260506035459 10 0 0.0 0.0 0.00 0.00 0.00 82 1007.6
20260506034953 10 229 0.0 0.0 0.00 0.00 0.00 82 1007.6
20260506033941 10 225 0.0 0.0 0.00 0.00 0.00 82 1007.4
20260506033436 10 225 0.0 0.0 0.00 0.00 0.00 82 1007.4
20260506032930 10 225 0.0 0.0 0.00 0.00 0.00 82 1007.5
20260506032424 10 225 0.0 0.0 0.00 0.00 0.00 82 1007.4
20260506031918 10 225 0.0 0.0 0.00 0.00 0.00 82 1007.4
20260506031412 10 225 0.0 0.0 0.00 0.00 0.00 82 1007.5
20260506030400 10 225 0.0 0.0 0.00 0.00 0.00 82 1007.3
20260506025855 10 225 0.0 0.0 0.00 0.00 0.00 82 1007.3
20260506025349 10 312 0.0 0.0 0.00 0.00 0.00 82 1007.2
20260506024337 10 269 0.0 0.0 0.00 0.00 0.00 82 1007.3
20260506023831 11 225 0.0 0.0 0.00 0.00 0.00 82 1007.5
20260506023325 11 225 0.0 0.0 0.00 0.00 0.00 82 1007.5
20260506022819 11 247 0.0 0.0 0.00 0.00 0.00 82 1007.5
20260506021807 11 9 0.0 0.0 0.00 0.00 0.00 82 1007.6
20260506021301 11 109 0.0 0.0 0.00 0.00 0.00 81 1007.6
20260506020755 11 258 0.0 0.0 0.00 0.00 0.00 80 1007.7
20260506020250 11 270 0.0 0.0 0.00 0.00 0.00 80 1007.7
20260506015238 11 270 0.0 0.0 0.00 0.00 0.00 80 1007.6
20260506013720 12 306 0.0 0.0 0.00 0.00 0.00 80 1007.5
20260506013214 12 319 0.0 0.0 0.00 0.00 0.00 80 1007.5
20260506012708 12 304 0.0 0.0 0.00 0.00 0.00 80 1007.4
20260506012202 12 0 0.0 0.0 0.00 0.00 0.00 80 1007.4
20260506011656 12 342 0.0 0.0 0.00 0.00 0.00 80 1007.5
20260506011150 12 225 0.0 0.0 0.00 0.00 0.00 80 1007.5
20260506010644 12 225 0.0 0.0 0.00 0.00 0.00 80 1007.5
20260506010138 12 290 0.0 0.0 0.00 0.00 0.00 80 1007.4
20260506005632 12 270 0.0 0.0 0.00 0.00 0.00 80 1007.4
20260506003608 13 315 0.0 0.0 0.00 0.00 0.00 80 1007.3
20260506003102 13 315 0.0 0.0 0.00 0.00 0.00 80 1007.3
20260506002049 13 225 0.0 0.0 0.00 0.00 0.00 80 1007.4
20260506001544 13 225 0.0 0.0 0.00 0.00 0.00 80 1007.4
20260506000531 13 211 0.0 0.0 0.00 0.00 0.00 81 1007.3
20260506000025 13 229 0.0 0.0 0.00 0.00 0.00 81 1007.4
20260505235519 13 242 0.0 0.0 0.00 0.00 0.00 81 1007.3
20260505235012 14 280 0.0 0.0 0.00 0.00 0.00 82 1007.2
20260505234506 14 271 0.0 0.0 0.00 0.00 0.00 82 1007.2
20260505233454 14 221 0.0 0.0 0.00 0.00 0.00 81 1007.2
20260505232948 14 202 0.0 0.0 0.00 0.00 0.00 81 1007.3
20260505231936 14 350 0.0 0.0 0.00 0.00 0.00 81 1007.3
20260505231429 14 315 0.0 0.0 0.00 0.00 0.00 81 1007.3
20260505230417 14 315 0.0 0.0 0.00 0.00 0.00 81 1007.5
20260505225911 15 315 0.0 0.0 0.00 0.00 0.00 81 1007.5
20260505225405 15 292 0.0 0.0 0.00 0.00 0.00 82 1007.5
20260505224858 14 302 0.0 0.0 0.00 0.00 0.00 82 1007.5
20260505224352 14 294 0.0 0.0 0.00 0.00 0.00 83 1007.6
20260505223846 14 306 0.0 0.0 0.00 0.00 0.00 83 1007.7
20260505223340 14 285 0.0 0.0 0.00 0.00 0.00 84 1007.8
20260505222834 15 42 0.0 0.0 0.00 0.00 0.00 83 1007.9
20260505222328 15 66 0.0 1.6 0.00 0.00 0.00 82 1007.9
20260505221315 15 339 0.0 0.0 0.00 0.00 0.00 81 1007.7
20260505220809 15 297 0.0 0.0 0.00 0.00 0.00 82 1007.7
20260505220303 15 81 0.0 0.0 0.00 0.00 0.00 82 1007.7
20260505215757 15 119 0.0 0.0 0.00 0.00 0.00 81 1007.5
20260505214744 15 129 0.0 0.0 0.00 0.00 0.00 81 1007.4
20260505213732 15 14 0.0 3.2 0.00 0.00 0.00 80 1007.3
20260505212720 15 4 0.0 0.0 0.00 0.00 0.00 79 1007.2
20260505211707 15 324 1.6 3.2 0.00 0.00 0.00 79 1007.2
20260505205643 16 291 0.0 1.6 0.00 0.00 0.00 75 1007.1
20260505205136 16 280 1.6 3.2 0.00 0.00 0.00 74 1007.0
20260505203111 16 277 3.2 6.4 0.00 0.00 0.00 70 1006.7
20260505201552 17 265 4.8 11.3 0.00 0.00 0.00 63 1006.3
20260505201045 17 252 8.0 12.9 0.00 0.00 0.00 60 1006.5
20260505200538 18 215 3.2 6.4 0.00 0.00 0.00 59 1006.5
20260505200032 18 232 4.8 11.3 0.00 0.00 0.00 56 1006.1
20260505195525 18 219 1.6 3.2 0.00 0.00 0.00 54 1005.9
20260505195019 18 333 1.6 4.8 0.00 0.00 0.00 54 1005.4
20260505194512 18 20 1.6 3.2 0.00 0.00 0.00 54 1005.0
20260505194006 18 5 0.0 3.2 0.00 0.00 0.00 54 1005.0
20260505193459 18 352 1.6 3.2 0.00 0.00 0.00 53 1005.0
20260505192953 18 300 1.6 3.2 0.00 0.00 0.00 54 1005.0
20260505192446 18 282 1.6 3.2 0.00 0.00 0.00 54 1005.0
20260505191940 18 275 1.6 4.8 0.00 0.00 0.00 54 1005.0
20260505190420 18 235 3.2 9.7 0.00 0.00 0.00 54 1005.3
20260505185914 19 278 1.6 3.2 0.00 0.00 0.00 52 1004.8
20260505185407 19 346 0.0 0.0 0.00 0.00 0.00 52 1004.5
20260505184900 19 357 0.0 0.0 0.00 0.00 0.00 52 1004.4
20260505184354 19 348 0.0 3.2 0.00 0.00 0.00 51 1004.5
20260505183847 19 328 0.0 3.2 0.00 0.00 0.00 51 1004.5
20260505183341 19 315 0.0 0.0 0.00 0.00 0.00 51 1004.7
20260505182834 20 315 0.0 0.0 0.00 0.00 0.00 50 1004.7
20260505182327 20 315 0.0 0.0 0.00 0.00 0.00 50 1004.7
20260505181821 20 321 0.0 0.0 0.00 0.00 0.00 50 1004.7
20260505180301 20 348 0.0 3.2 0.00 0.00 0.00 50 1004.5
20260505175754 20 1 1.6 4.8 0.00 0.00 0.00 49 1004.6
20260505175247 21 353 0.0 1.6 0.00 0.00 0.00 49 1004.7
20260505174740 21 357 0.0 3.2 0.00 0.00 0.00 49 1004.9
20260505174234 21 356 1.6 3.2 0.00 0.00 0.00 48 1005.0
20260505172713 21 16 1.6 1.6 0.00 0.00 0.00 47 1005.0
20260505171153 22 360 1.6 4.8 0.00 0.00 0.00 46 1005.0
20260505170646 22 6 1.6 4.8 0.00 0.00 0.00 46 1005.0
20260505165632 22 27 1.6 3.2 0.00 0.00 0.00 45 1005.0
20260505165125 23 35 1.6 3.2 0.00 0.00 0.00 44 1005.1
20260505163604 23 57 3.2 4.8 0.00 0.00 0.00 43 1005.2
20260505163057 23 61 1.6 3.2 0.00 0.00 0.00 41 1005.3
20260505162043 24 49 1.6 4.8 0.00 0.00 0.00 39 1005.4
20260505161536 24 72 3.2 8.0 0.00 0.00 0.00 38 1005.4
20260505161029 25 69 3.2 6.4 0.00 0.00 0.00 35 1005.5
20260505160521 25 27 1.6 4.8 0.00 0.00 0.00 36 1005.3
20260505152930 27 5 1.6 3.2 0.00 0.00 0.00 34 1005.2
20260505152423 27 358 1.6 3.2 0.00 0.00 0.00 34 1005.3
20260505151915 26 11 1.6 4.8 0.00 0.00 0.00 34 1005.3
20260505151408 26 10 1.6 3.2 0.00 0.00 0.00 35 1005.3
20260505150353 27 39 1.6 4.8 0.00 0.00 0.00 34 1005.4
20260505124531 28 354 3.2 6.4 0.00 0.00 0.00 33 1006.6
20260505124024 28 68 3.2 6.4 0.00 0.00 0.00 32 1006.8
20260505123516 28 32 3.2 6.4 0.00 0.00 0.00 32 1006.9
20260505121954 28 46 3.2 6.4 0.00 0.00 0.00 33 1007.0
20260505120939 28 22 1.6 3.2 0.00 0.00 0.00 33 1007.0
20260505120431 28 30 3.2 4.8 0.00 0.00 0.00 33 1007.1
20260505115923 28 28 3.2 4.8 0.00 0.00 0.00 34 1007.2
20260505115416 28 32 3.2 4.8 0.00 0.00 0.00 34 1007.3
20260505114401 28 17 1.6 4.8 0.00 0.00 0.00 34 1007.3
20260505113853 28 60 3.2 6.4 0.00 0.00 0.00 32 1007.3
20260505112838 28 356 3.2 4.8 0.00 0.00 0.00 34 1007.5
20260505112330 28 66 1.6 4.8 0.00 0.00 0.00 34 1007.6
20260505111823 28 355 3.2 8.0 0.00 0.00 0.00 34 1007.6
20260505111315 28 35 3.2 4.8 0.00 0.00 0.00 35 1007.7
20260505110300 28 3 3.2 4.8 0.00 0.00 0.00 34 1007.7
20260505102200 27 31 3.2 4.8 0.00 0.00 0.00 36 1008.1
20260505101653 27 41 1.6 4.8 0.00 0.00 0.00 38 1008.1
20260505101145 27 40 1.6 3.2 0.00 0.00 0.00 36 1008.2
20260505100638 27 32 3.2 4.8 0.00 0.00 0.00 39 1008.2
20260505100131 27 62 3.2 8.0 0.00 0.00 0.00 39 1008.2
20260505095623 27 53 1.6 3.2 0.00 0.00 0.00 39 1008.2
20260505094608 26 88 3.2 8.0 0.00 0.00 0.00 40 1008.3
20260505094101 27 60 3.2 6.4 0.00 0.00 0.00 40 1008.4
20260505093554 27 20 3.2 6.4 0.00 0.00 0.00 40 1008.4
20260505093047 27 7 1.6 4.8 0.00 0.00 0.00 40 1008.5
20260505092539 27 63 3.2 4.8 0.00 0.00 0.00 40 1008.4
20260505092032 27 25 3.2 4.8 0.00 0.00 0.00 40 1008.5
20260505091524 26 9 3.2 4.8 0.00 0.00 0.00 41 1008.5
20260505091017 26 77 1.6 4.8 0.00 0.00 0.00 41 1008.6
20260505090509 27 26 1.6 6.4 0.00 0.00 0.00 42 1008.6
20260505090002 26 8 3.2 8.0 0.00 0.00 0.00 44 1008.7
20260505085455 26 7 1.6 3.2 0.00 0.00 0.00 45 1008.7
20260505084441 25 77 3.2 4.8 0.00 0.00 0.00 45 1008.9
20260505083933 25 37 1.6 4.8 0.00 0.00 0.00 47 1008.9
20260505082919 25 86 3.2 4.8 0.00 0.00 0.00 46 1008.9
20260505081904 25 344 1.6 4.8 0.00 0.00 0.00 47 1008.9
20260505075329 24 113 3.2 6.4 0.00 0.00 0.00 47 1008.9
20260505074822 25 90 1.6 4.8 0.00 0.00 0.00 47 1009.0
20260505074315 24 25 1.6 3.2 0.00 0.00 0.00 48 1009.0
20260505072754 23 63 1.6 4.8 0.00 0.00 0.00 50 1009.1
20260505072247 23 15 1.6 3.2 0.00 0.00 0.00 51 1009.1
20260505071233 22 84 3.2 4.8 0.00 0.00 0.00 53 1009.3
20260505070726 22 78 1.6 4.8 0.00 0.00 0.00 54 1009.3
20260505065712 22 24 1.6 3.2 0.00 0.00 0.00 58 1009.4
20260505065205 22 3 1.6 3.2 0.00 0.00 0.00 58 1009.4
20260505064658 22 338 0.0 3.2 0.00 0.00 0.00 60 1009.4
20260505064152 21 345 1.6 1.6 0.00 0.00 0.00 62 1009.5
20260505063645 21 19 1.6 1.6 0.00 0.00 0.00 64 1009.5
20260505063138 20 46 1.6 3.2 0.00 0.00 0.00 65 1009.5
20260505062632 20 83 1.6 3.2 0.00 0.00 0.00 67 1009.4
20260505062125 20 87 1.6 3.2 0.00 0.00 0.00 70 1009.4
20260505061618 19 87 1.6 3.2 0.00 0.00 0.00 73 1009.5
20260505061112 18 86 1.6 3.2 0.00 0.00 0.00 75 1009.5
20260505060059 17 347 0.0 3.2 0.00 0.00 0.00 79 1009.5
20260505055046 16 264 0.0 1.6 0.00 0.00 0.00 80 1009.7
20260505054540 16 276 1.6 3.2 0.00 0.00 0.00 82 1009.9
20260505053528 15 240 0.0 3.2 0.00 0.00 0.00 83 1009.9
20260505053021 15 244 0.0 0.0 0.00 0.00 0.00 85 1009.8
20260505052515 14 66 0.0 0.0 0.00 0.00 0.00 86 1009.7
20260505051503 13 256 0.0 0.0 0.00 0.00 0.00 85 1009.8